カタログに戻る

KUIPER-00538

運用中通信LEO
NORAD 69608·PAYLOAD·🇺🇸 United States

打ち上げ Jun 17, 2026 から Guiana Space Centre

Loading…

次のパス (今後24時間)

TLE

最新Source: CelesTrak SupGP

元期: Sep 14, 2026, 16:43 UTC

1 69608C 26140S   26257.69696759  .00156400  00000+0  20500-1 0  2571
2 69608  51.9027 342.3048 0000230 101.2466 112.0402 14.79721155    17

AllMySatでKUIPER-00538をリアルタイム追跡

Download on the App Store